sat.trackr.live / text

‹ back to catalog

QIANFAN-27

NORAD 61560 · 2024-185J

PAYLOAD ACTIVE UNKNOWN

§ Identity

Operator
Country
PRC
Launch date
2024-10-15
Launch site
TAISC
Launch vehicle
Mass (kg)
RCS (m²)

External: N2YO · Heavens-Above · Gunter

§ Orbital elements

Epoch: 2026-09-22T20:31:25.894848Z

Period
100.87 min
Inclination
88.9850°
Eccentricity
0.0009392
Mean motion
14.27606218 rev/d
Perigee alt
793.0 km
Apogee alt
806.5 km
Semi-major
7,177.9 km
B*
1.9834e-4
RAAN
43.6484°
Arg perigee
81.2105°
Mean anomaly
279.0153°
Rev number
11,069

§ Raw data

QIANFAN-271 61560U 24185J   26265.85516082  .00000503  00000+0  19834-3 0  99992 61560  88.9850  43.6484 0009392  81.2105 279.0153 14.27606218110698

JSON: /api/v1/satellites/61560 · /tle

For live sub-satellite position, see the globe view (requires WebGL).

§ Visibility from observer

Set your observer location to see the next 7 days of passes ≥ 10°. The values pass through the URL so the page stays shareable.

No JS? Fill the form by hand. The geolocation button needs JavaScript.